Wind_Speed
23 22 22 22 22 21 20 19 18 16 15 14 14 14 13 12 12 11 10 9 9 8 8 9 10 10 11 11 11 11 11 11 12 11 11 11 11 11 11 10 9 9 9 10 10 11 12 13 13 13 13 13 12 12 12 11 11 11 12 13 14 15 16 18 19 20 20 21 22 24 25 27 28 29 30 31 32 34 35 36 38 40 41 43 45
23 22 22 22 22 22 21 20 18 16 15 16 15 15 13 12 11 10 9 8 8 8 8 9 10 11 11 11 11 11 12 12 12 12 12 12 12 12 11 10 9 9 9 10 10 11 12 13 13 12 12 12 12 12 12 12 12 12 13 14 16 17 17 18 19 19 20 21 23 24 26 27 28 30 31 32 34 35 36 38 40 42 43 44 45
22 21 22 23 23 23 22 21 18 16 16 17 17 16 14 12 11 10 9 8 8 9 9 10 11 11 11 11 12 12 13 13 13 13 13 13 12 12 11 10 9 9 9 10 10 11 11 12 12 11 11 11 11 11 12 12 13 14 15 16 17 18 18 19 19 20 22 23 25 26 26 27 29 31 32 34 35 36 37 39 42 43 44 45 46
22 22 23 23 24 24 23 21 19 17 18 19 19 17 15 13 12 11 10 9 10 10 11 11 11 12 12 12 13 13 14 14 14 15 14 13 13 12 10 10 9 9 9 10 10 10 11 11 10 10 10 10 11 11 11 13 14 15 16 17 18 19 19 20 21 22 24 25 26 27 28 29 30 31 33 35 37 38 38 40 42 44 46 47 48
22 22 22 23 23 23 23 22 20 19 19 20 20 18 15 14 13 12 11 11 12 12 12 13 13 13 13 14 14 15 15 16 16 15 14 13 13 11 10 10 10 10 9 9 10 10 10 10 9 9 10 10 10 11 12 13 14 15 17 17 18 19 19 20 22 23 25 26 27 29 30 31 31 32 34 36 37 39 40 41 43 45 47 49 51
23 22 23 23 23 23 23 22 21 20 20 21 21 19 17 16 15 14 14 14 14 14 14 14 14 14 15 15 16 16 17 17 17 15 14 13 12 11 10 11 10 10 9 9 9 9 9 9 9 9 9 9 10 11 12 13 14 15 16 17 17 18 19 21 22 24 25 27 28 30 31 32 33 34 36 37 38 41 42 44 45 46 48 51 53
24 23 23 23 23 23 23 22 22 21 21 22 21 20 18 18 17 17 16 16 15 16 16 15 15 16 16 17 17 18 18 18 17 15 14 13 12 11 10 10 10 10 10 9 9 9 9 8 9 9 9 9 10 11 12 13 14 15 15 16 17 18 20 21 23 25 26 27 29 31 32 33 34 35 36 37 39 41 44 46 47 48 50 52 54
24 24 24 24 24 23 23 22 22 22 22 22 22 21 20 20 19 19 18 17 16 17 17 17 17 17 17 18 18 19 18 18 17 16 14 13 12 11 11 10 11 10 10 9 8 8 8 8 8 8 9 9 10 11 12 13 13 14 15 16 17 18 20 22 24 26 27 28 29 31 32 33 35 36 37 38 40 43 45 47 49 51 52 52 54
25 25 25 25 24 23 23 23 23 23 23 23 23 22 22 22 21 21 19 18 18 18 18 18 18 18 18 19 19 19 19 18 17 16 14 13 12 11 11 10 11 11 10 9 8 8 7 7 7 7 8 9 10 11 11 12 13 14 15 16 17 19 21 23 25 26 27 29 30 31 32 34 36 37 38 40 42 44 46 47 49 51 52 52 54
26 26 26 26 25 24 24 24 24 24 24 24 24 24 24 24 23 22 21 19 19 19 19 19 19 19 19 19 19 19 19 18 17 16 14 13 12 12 11 11 11 11 10 9 8 8 7 7 6 7 8 9 9 10 11 12 12 14 15 16 18 20 22 23 24 25 27 29 30 31 33 35 37 38 40 41 43 45 46 48 49 51 52 52 54
27 26 26 26 26 25 25 25 25 26 26 26 26 26 25 25 24 23 21 20 20 20 20 20 20 20 20 20 20 20 19 18 17 16 15 14 13 12 11 11 11 11 10 10 8 8 7 7 6 7 8 9 9 10 11 12 13 14 15 17 18 20 21 23 24 25 26 28 30 32 34 36 37 39 41 42 44 46 47 49 50 50 51 53 54
28 27 27 27 27 27 26 26 26 27 26 26 27 27 27 26 25 23 22 21 20 20 20 20 20 20 20 20 20 20 19 19 18 16 15 14 13 13 12 11 11 11 10 10 8 8 7 7 7 7 8 9 10 11 11 13 14 16 17 18 19 21 22 23 24 25 26 28 30 33 35 36 38 40 42 43 45 46 48 49 49 48 49 51 53
29 28 27 27 28 28 27 27 27 28 27 27 28 28 27 25 24 23 22 21 20 19 19 19 19 20 21 21 21 20 20 19 18 16 15 15 14 13 13 12 11 11 11 10 8 7 7 6 7 8 8 9 10 11 12 13 15 17 18 19 19 21 22 23 24 25 27 28 30 33 35 36 38 40 42 44 46 47 48 48 48 47 48 49 51
29 28 28 28 29 29 29 28 28 28 28 28 28 27 26 25 24 23 21 20 20 20 20 19 19 20 21 21 21 20 20 20 19 17 16 16 15 14 13 12 12 12 11 9 8 7 7 7 7 7 8 9 9 10 12 14 15 17 18 19 20 21 22 23 25 26 28 29 31 33 34 36 38 40 42 44 46 47 48 48 48 47 47 47 49
29 29 28 29 30 30 30 29 29 29 29 28 28 26 25 24 23 22 21 21 21 21 20 19 19 20 21 21 21 21 21 21 20 18 17 16 16 14 13 13 12 11 10 9 7 7 7 7 7 7 8 8 9 10 12 13 15 16 17 18 19 21 22 24 25 27 29 30 31 33 35 37 39 40 42 44 44 45 45 46 46 46 46 46 47
29 29 29 30 31 31 32 31 31 31 30 29 28 26 25 25 25 24 23 23 23 22 20 18 18 19 21 22 22 22 22 22 21 19 18 17 16 15 14 13 12 11 10 8 8 7 7 7 7 7 7 7 8 10 11 13 15 15 16 17 18 20 22 24 25 27 29 30 32 33 35 36 37 39 40 41 42 43 43 44 44 44 45 46 47
29 29 30 31 31 32 33 33 32 31 30 29 28 26 25 26 26 26 25 25 25 23 20 18 19 21 23 23 22 22 23 22 21 20 19 18 17 16 15 13 11 10 9 9 8 8 8 8 8 7 7 7 8 9 11 13 14 15 16 17 18 20 21 23 25 26 28 29 31 33 34 35 35 36 37 38 39 41 42 42 43 44 45 46 47
29 30 30 31 31 32 32 32 32 31 30 29 28 27 27 27 27 27 26 26 27 24 20 19 21 23 23 23 23 23 23 23 23 21 20 18 18 16 15 13 11 10 9 9 9 8 8 8 8 8 7 7 8 9 10 12 13 14 15 16 18 19 21 22 24 25 26 28 30 31 33 33 34 34 35 36 37 38 40 41 42 42 43 44 46
28 28 29 30 30 28 27 29 30 29 28 29 29 29 29 28 28 28 28 28 27 24 20 19 21 22 22 23 23 23 24 24 23 21 19 18 17 16 14 13 11 10 10 10 9 9 9 9 9 8 8 7 8 9 10 12 13 14 15 16 18 19 21 23 24 25 27 28 29 31 32 33 34 35 36 35 35 36 36 38 39 40 41 42 44
26 27 28 29 30 29 29 30 29 26 27 28 28 28 27 26 25 25 27 27 24 21 19 19 20 21 22 23 23 24 24 23 22 21 19 18 17 16 15 13 12 12 12 11 11 10 10 10 9 9 8 8 8 9 11 12 13 14 15 16 18 20 21 23 25 26 28 29 30 32 34 35 36 37 36 35 35 34 34 35 35 36 38 39 41
25 26 27 28 28 30 32 31 29 27 28 29 29 28 27 24 23 24 26 25 22 19 18 18 20 22 23 23 23 24 24 24 22 21 19 18 18 18 16 14 13 13 13 12 12 11 10 10 10 9 8 8 9 10 11 13 13 14 16 17 19 20 22 23 25 26 28 30 32 34 35 36 37 38 37 36 35 34 33 33 32 32 34 36 38
24 24 24 25 25 25 27 29 30 30 30 30 30 29 26 24 25 25 25 23 21 19 17 19 21 22 23 24 24 24 25 25 23 21 20 20 20 19 17 16 14 14 13 13 12 11 11 11 10 9 9 9 9 10 12 13 14 15 16 18 19 20 22 23 25 26 28 30 32 34 35 37 38 38 38 37 36 35 32 30 29 29 30 32 35
23 24 25 26 25 23 25 29 31 30 30 30 29 28 27 26 27 26 24 22 21 18 18 19 22 22 23 24 24 24 25 25 23 22 21 21 21 20 18 16 15 14 14 13 13 13 12 11 10 10 10 10 10 11 12 13 14 16 17 18 19 21 22 23 25 26 28 30 32 34 35 37 38 39 39 39 37 35 33 31 29 27 26 28 31
24 27 29 29 27 24 25 30 32 32 32 31 30 29 28 27 27 26 24 22 20 19 19 20 22 22 23 24 24 25 25 25 24 22 21 21 21 21 19 17 16 16 15 15 14 14 13 12 11 10 10 10 11 11 13 14 15 16 17 18 19 20 22 23 24 26 28 30 32 33 34 36 38 39 39 38 37 36 35 33 29 25 24 25 28
23 27 30 29 26 23 23 28 30 31 32 31 31 30 28 26 26 25 23 21 20 20 21 22 22 23 23 24 24 25 25 25 24 23 22 21 21 22 20 18 17 17 16 16 15 14 13 12 11 10 10 11 11 12 13 14 15 16 17 18 19 20 21 23 24 26 28 30 31 33 34 36 37 38 38 38 39 38 37 33 30 26 24 23 24
20 22 24 25 24 22 21 24 26 28 28 28 29 28 27 26 24 23 21 21 20 21 22 22 23 24 24 24 25 26 26 26 25 23 22 22 22 22 21 20 18 18 17 16 15 14 14 13 12 11 11 12 12 12 13 14 15 16 17 18 19 20 21 23 24 26 28 29 31 32 33 35 36 37 38 38 38 38 37 35 32 29 26 24 23
19 20 22 24 24 22 23 25 27 27 27 27 26 26 26 25 23 21 22 22 22 23 23 23 23 24 25 25 25 26 26 26 25 24 23 23 23 23 22 21 20 19 18 17 16 15 14 14 13 12 12 12 12 12 13 14 15 17 18 19 19 20 21 22 24 25 27 29 30 31 33 34 36 37 37 36 36 37 37 35 33 31 29 28 27
20 21 22 23 23 24 27 29 29 29 29 28 26 25 26 26 24 23 25 26 25 25 24 23 23 24 24 24 25 26 26 25 24 23 23 23 24 24 24 22 21 20 19 18 17 16 15 15 14 14 13 13 13 13 13 14 15 17 18 19 20 21 22 23 24 25 27 29 30 31 32 33 34 35 36 35 35 36 36 35 34 32 31 30 30
21 21 23 23 24 26 28 29 29 29 29 29 28 26 26 26 25 23 24 24 24 24 24 24 25 25 25 25 25 25 25 24 23 23 23 25 26 26 25 23 22 22 21 19 18 17 17 16 15 14 14 14 14 13 14 15 16 17 18 19 20 21 22 23 24 26 27 29 29 30 31 32 32 33 34 34 35 35 35 35 34 33 32 31 31
22 22 22 23 24 26 27 28 29 30 30 30 30 27 25 26 26 25 24 24 24 25 25 26 27 28 28 27 26 25 24 24 24 25 27 28 28 27 26 25 24 23 22 20 19 18 18 17 16 15 14 14 14 14 14 15 16 18 19 20 21 21 22 23 24 25 27 28 29 29 29 30 31 32 33 33 33 34 34 34 34 32 31 32 31
23 22 23 24 24 25 26 27 29 30 30 30 29 26 24 25 26 26 26 27 28 28 28 28 29 29 29 28 27 27 27 27 29 29 29 29 28 27 27 27 26 24 23 21 20 19 19 18 17 16 15 15 14 14 15 15 16 18 18 19 21 22 22 22 23 24 26 27 28 28 29 29 30 30 31 31 31 32 33 33 33 32 32 32 32
23 23 23 24 24 25 26 27 27 28 29 28 26 24 24 25 26 26 26 27 28 28 29 29 29 29 29 29 28 28 29 30 31 31 30 29 28 28 29 29 27 25 24 22 20 20 20 19 18 17 16 15 15 15 15 16 17 18 19 19 20 21 22 22 23 24 25 26 27 28 28 28 28 28 29 30 31 32 32 32 33 33 33 33 33
23 23 24 25 26 27 28 28 28 28 27 26 25 25 25 26 26 27 28 28 28 29 29 29 28 29 30 29 29 29 31 32 32 31 30 30 29 30 30 29 27 25 24 23 21 20 20 20 19 18 17 16 15 16 16 16 17 18 19 20 21 21 22 22 22 23 25 26 27 27 27 27 28 28 29 29 30 30 30 31 31 32 33 34 34
23 23 23 26 28 29 29 28 28 26 26 26 26 27 27 28 28 28 28 28 29 29 29 28 27 28 29 29 28 29 30 31 31 31 31 31 32 32 32 29 26 25 24 22 21 21 21 21 20 19 18 17 17 17 17 17 18 19 20 20 21 21 22 22 22 23 24 25 26 27 27 27 27 27 28 28 28 27 27 28 29 30 31 33 34
24 23 24 26 28 28 27 28 27 26 25 26 27 28 29 30 29 27 26 26 26 26 25 25 25 27 28 28 27 27 29 30 31 32 32 33 34 33 31 27 25 24 23 22 22 23 23 23 21 20 19 18 18 18 18 18 18 19 20 21 21 21 22 22 22 22 24 24 25 26 26 26 26 26 27 28 28 27 26 27 27 27 29 31 32
24 24 24 26 28 28 28 29 28 27 26 27 28 29 30 29 28 26 24 23 23 23 23 22 24 26 28 27 26 27 29 31 32 33 33 33 33 32 30 26 25 25 25 24 23 24 24 24 22 21 20 19 19 19 19 19 19 19 20 21 21 21 22 22 22 22 23 24 24 25 26 26 26 26 26 26 26 27 26 25 25 24 25 27 29
23 23 24 26 28 29 31 31 30 29 29 29 30 30 30 28 26 23 22 21 21 22 22 22 24 27 28 27 27 28 30 32 34 34 34 34 34 32 29 26 25 26 26 25 25 25 25 24 23 22 21 21 21 20 20 20 20 20 20 21 21 21 21 21 21 22 22 23 24 25 25 25 25 25 26 26 26 26 26 25 23 22 23 24 26
23 22 22 23 25 26 28 29 30 30 30 30 31 30 29 27 24 22 22 22 22 22 22 22 24 26 26 26 26 28 30 33 35 35 35 34 34 31 29 27 26 27 27 26 26 26 26 25 24 22 22 22 22 22 21 21 20 20 21 21 21 22 21 21 21 22 22 23 24 24 25 25 25 25 26 26 27 27 26 25 22 21 20 22 24
23 21 21 21 22 23 24 25 27 29 29 30 30 30 28 25 23 23 23 22 22 23 24 24 23 23 24 25 27 29 32 34 35 35 34 33 32 31 30 29 29 29 28 27 26 26 26 25 24 23 23 23 23 23 22 22 21 21 21 21 22 22 21 21 22 22 22 23 23 24 24 24 25 25 24 24 25 26 26 25 23 21 19 20 21
21 20 19 19 20 20 22 24 26 27 28 29 29 28 26 24 23 23 22 22 23 24 25 26 26 24 24 26 27 29 31 33 34 34 34 33 32 32 31 31 31 30 29 28 27 27 27 26 26 24 24 24 24 24 23 23 22 21 21 22 22 22 22 22 22 22 22 23 23 23 23 24 25 25 24 24 24 25 25 25 23 21 20 19 20
19 19 19 19 20 22 23 25 26 26 27 28 28 27 25 23 21 20 20 21 22 24 26 27 27 26 26 26 27 28 31 32 33 33 33 33 33 34 33 32 31 31 31 30 28 28 27 27 27 25 25 25 25 25 25 24 23 22 22 22 22 22 22 22 22 22 22 23 23 23 23 23 24 25 25 24 24 23 23 24 23 22 21 20 20
22 23 24 25 26 25 25 25 26 26 27 28 28 27 25 22 21 20 21 21 22 24 26 27 27 27 27 26 26 29 31 33 33 34 35 35 36 35 34 32 32 32 32 30 29 29 28 28 27 26 26 26 26 26 26 25 24 23 22 22 22 23 23 23 23 23 23 24 24 24 23 23 24 25 25 25 25 24 23 22 22 22 21 20 20
24 25 26 27 28 26 25 25 26 27 28 28 28 27 26 25 25 25 25 24 24 25 26 27 27 27 26 25 26 29 32 34 35 36 37 37 36 35 34 32 32 32 32 30 30 30 29 29 28 27 26 26 27 26 26 25 24 23 23 23 23 23 23 24 23 23 23 24 25 25 24 24 24 24 25 25 25 26 25 24 22 21 21 20 20
24 25 26 27 27 27 26 27 27 28 28 28 29 29 29 29 29 28 28 26 25 25 26 27 27 27 27 26 28 30 32 35 36 37 36 36 36 35 34 33 32 32 32 31 31 31 30 29 29 27 27 27 27 27 26 26 25 24 23 23 23 24 24 24 24 24 24 25 25 26 26 26 25 25 25 25 25 26 26 26 25 23 21 20 20
26 26 26 28 29 30 30 30 30 30 29 30 32 33 32 31 31 30 28 26 25 25 26 27 27 27 27 28 30 32 33 35 35 35 34 34 34 34 33 33 32 32 31 31 31 32 31 30 29 28 27 28 28 28 27 26 26 25 24 24 24 24 25 25 25 25 25 26 26 26 27 26 26 25 25 25 26 26 27 28 28 27 25 23 21
26 26 26 28 29 31 32 32 32 32 32 32 34 36 35 33 31 29 27 25 26 27 27 26 26 27 27 29 30 32 33 34 35 34 34 34 34 34 34 33 33 32 31 31 32 32 31 31 29 28 28 28 29 28 28 27 27 26 25 25 24 24 25 25 26 26 26 27 27 27 27 27 26 26 26 25 26 26 27 28 28 29 29 27 24
26 26 26 27 28 29 30 31 32 33 34 34 34 33 32 30 28 27 26 26 27 28 28 27 27 27 28 29 30 32 33 34 34 34 33 33 34 35 35 34 33 32 31 31 31 32 31 31 30 29 29 29 29 29 28 28 27 27 26 25 25 25 25 26 27 27 27 27 27 27 27 27 27 26 26 26 26 27 27 28 28 29 30 29 27
24 25 25 26 27 28 28 30 32 34 34 32 29 26 24 24 25 25 26 26 27 28 28 28 28 28 29 30 31 32 32 33 33 33 33 34 35 35 35 35 34 32 31 31 31 31 31 31 30 29 29 29 29 29 29 28 28 28 27 27 26 26 26 27 28 28 28 28 28 28 28 28 27 27 27 27 27 27 28 29 29 29 30 30 30
23 23 24 25 26 27 27 28 30 31 30 28 25 23 22 22 23 24 25 26 26 27 28 29 28 28 28 29 31 31 32 33 34 35 35 35 35 35 35 34 34 32 31 30 30 30 31 30 30 29 29 30 30 30 29 29 29 29 28 28 28 27 28 28 28 28 29 29 29 29 28 28 28 27 27 27 27 28 28 28 28 29 29 30 30
22 22 23 24 25 25 25 25 24 24 24 24 24 24 24 23 23 24 25 26 26 27 28 29 28 28 27 28 29 30 31 33 35 35 35 34 35 34 34 35 34 32 30 30 30 30 30 29 29 29 30 30 30 30 30 29 29 29 29 29 29 29 29 28 28 28 29 29 29 29 29 29 28 28 28 28 28 28 29 29 29 29 29 29 29
23 22 22 21 20 20 21 21 21 21 22 23 23 24 23 23 24 25 26 27 28 28 29 29 29 28 28 28 29 29 31 33 34 34 34 34 34 33 33 33 32 31 30 29 29 28 28 29 29 30 31 31 30 30 30 30 30 30 29 29 29 29 29 29 29 29 29 29 30 30 30 30 29 28 28 28 28 29 29 29 29 29 28 28 28
Wind_Direction
213 216 217 217 217 216 216 216 218 219 221 226 228 228 230 230 229 229 229 234 239 247 257 262 265 267 267 266 261 258 257 257 258 260 264 271 277 281 281 283 290 298 304 310 316 318 319 319 320 321 325 327 328 329 332 335 335 336 338 340 342 343 344 345 346 345 343 345 349 353 354 353 353 353 353 354 356 357 354 351 352 353 354 355 356
213 214 215 217 218 216 215 216 217 219 221 224 224 224 224 224 226 229 232 239 245 254 262 265 267 268 267 266 262 260 260 258 260 263 267 273 276 278 280 283 289 296 303 310 315 316 318 319 319 323 326 326 327 330 333 336 337 339 341 341 342 342 343 345 346 344 342 344 350 354 354 351 351 352 352 352 355 357 355 354 355 356 355 355 357
211 212 213 215 217 215 214 215 216 218 222 223 222 220 221 225 230 233 238 246 254 261 266 268 270 271 270 268 265 263 261 261 263 265 269 273 275 277 279 283 288 295 302 309 313 317 318 318 320 324 324 325 328 332 336 337 338 340 341 341 342 342 343 344 344 343 344 346 349 351 352 351 350 350 350 351 353 355 356 356 357 357 356 354 357
212 213 213 213 216 216 215 215 216 219 224 224 221 221 225 230 233 237 245 255 263 268 271 272 275 275 273 270 266 264 263 262 264 266 269 271 273 275 278 281 286 293 301 308 312 315 315 316 320 321 322 324 329 334 338 338 338 339 341 341 341 341 343 344 343 343 345 347 347 347 348 350 351 349 350 351 352 354 357 358 357 357 356 355 356
216 216 216 215 217 218 217 217 218 222 226 225 223 224 230 234 236 241 251 261 267 273 275 276 277 277 275 271 267 264 262 262 263 265 268 270 272 274 276 279 285 292 299 305 309 312 312 314 318 318 320 326 331 336 337 338 338 339 340 341 340 341 343 343 343 344 345 345 345 345 346 349 351 351 351 352 351 352 356 359 358 357 357 355 355
219 219 218 217 218 220 221 220 221 225 229 228 226 228 233 237 238 245 255 262 268 274 276 276 276 274 272 269 265 263 261 261 262 264 267 269 270 272 274 278 285 290 296 300 305 308 308 312 315 317 321 327 332 336 336 337 338 338 340 340 339 341 342 342 343 344 344 344 344 344 346 348 351 352 352 351 352 353 355 358 358 358 358 356 354
220 219 218 218 220 222 224 224 225 228 231 230 228 231 235 237 241 249 256 261 267 273 275 275 274 271 269 265 262 261 260 260 262 263 266 268 268 270 272 277 283 287 291 296 300 303 304 309 313 316 322 328 331 334 334 336 337 338 337 337 338 340 341 341 342 342 343 345 345 346 347 348 351 353 352 351 353 355 355 356 357 358 359 357 354
220 219 218 219 222 225 226 226 227 229 232 232 231 233 236 238 244 250 255 260 266 272 273 273 272 269 266 263 261 260 259 260 262 263 264 265 266 268 271 276 280 283 288 292 295 296 298 304 311 316 321 325 328 330 333 335 336 336 335 334 338 340 340 341 343 343 344 345 347 349 349 350 352 352 352 352 353 355 356 355 355 357 358 356 354
220 219 219 220 223 227 228 229 230 231 234 234 235 236 237 239 245 250 254 260 266 270 272 272 270 267 265 262 260 259 258 259 261 261 262 263 263 266 269 272 276 279 284 287 287 288 292 298 308 314 317 320 323 327 331 333 334 333 333 334 337 340 341 343 345 346 346 346 349 351 351 352 353 352 352 353 353 354 354 354 355 356 355 354 355
220 220 219 220 224 227 229 231 232 233 236 237 237 238 238 241 246 250 254 261 266 269 270 270 268 267 265 262 260 259 258 258 259 259 260 260 260 263 266 269 272 275 278 279 279 281 286 294 304 309 312 313 318 324 327 330 330 330 332 334 337 340 343 345 346 347 348 348 349 351 353 354 353 351 352 352 352 352 352 353 355 355 352 352 354
221 220 220 220 223 227 230 232 233 235 237 238 239 239 239 242 247 250 255 261 266 269 269 269 268 266 264 262 260 258 258 257 257 257 257 256 257 259 262 264 268 271 272 273 273 275 282 292 299 303 307 310 315 322 325 328 329 329 331 335 338 342 344 346 348 349 351 351 350 351 353 354 352 350 350 350 351 351 351 352 353 352 351 352 353
222 222 222 222 224 228 232 234 236 237 238 240 241 241 241 245 251 254 258 262 266 268 269 269 269 267 264 262 259 258 257 257 256 255 253 252 253 254 257 260 262 265 266 266 267 269 277 289 296 301 305 310 317 323 326 329 331 331 334 337 341 344 346 348 349 350 352 352 351 352 353 352 350 349 349 349 350 349 350 351 350 349 352 353 352
224 225 224 223 225 229 232 235 238 239 239 240 241 241 245 251 256 258 260 263 266 268 271 272 271 269 265 262 259 257 257 256 254 253 250 248 249 250 253 255 256 259 260 259 261 265 275 285 293 301 306 311 318 324 329 332 333 334 336 339 343 346 348 349 350 350 351 352 353 353 351 350 349 349 348 349 349 348 348 348 346 348 352 353 352
226 226 226 227 227 230 233 236 239 240 240 241 242 244 248 253 257 260 262 264 266 269 273 276 275 271 266 262 260 258 256 255 252 250 247 245 244 245 248 250 251 253 254 254 256 262 272 282 289 297 303 309 316 324 330 333 334 336 338 340 344 346 348 349 349 349 351 352 353 352 350 349 349 348 349 348 348 347 346 344 344 348 352 353 353
227 228 229 230 230 232 234 236 239 241 242 244 244 244 247 251 255 260 262 263 266 272 275 276 276 274 268 263 260 258 256 253 250 247 244 242 243 244 244 244 246 248 248 248 251 256 265 274 282 290 296 304 314 322 330 333 334 337 339 342 345 346 347 348 348 349 350 351 352 352 350 350 349 349 348 347 346 346 344 343 345 348 349 351 354
229 230 232 233 234 235 236 237 240 242 243 245 246 245 247 250 254 258 260 263 269 274 273 272 276 277 270 263 259 257 254 251 249 246 243 242 244 244 242 239 237 240 241 241 243 248 258 267 274 281 289 299 311 321 328 332 333 336 339 342 344 344 346 347 348 349 350 351 352 352 351 350 350 349 347 345 344 344 342 343 345 347 348 351 354
231 233 235 236 236 237 238 239 241 243 245 247 247 248 249 251 254 257 260 265 270 270 266 268 275 273 266 259 256 254 252 250 249 246 243 242 242 242 240 237 231 229 233 235 237 242 252 262 268 273 282 292 306 319 326 329 331 334 337 340 342 342 344 344 345 347 349 350 351 351 351 350 349 348 347 345 344 343 343 345 346 347 349 351 353
234 236 237 237 237 239 241 242 242 244 247 248 247 248 249 251 255 258 261 267 267 261 258 267 273 268 260 256 255 254 252 250 249 247 245 245 246 246 246 244 237 232 232 233 234 239 248 255 261 266 274 287 302 316 322 325 328 331 334 337 339 339 340 341 343 346 348 350 351 350 350 350 349 349 349 347 347 345 345 347 346 347 349 351 353
239 241 240 238 237 236 237 242 245 245 247 249 250 251 253 256 258 259 262 265 261 253 255 265 268 263 258 256 255 254 252 251 250 249 248 249 251 253 253 252 248 245 242 238 234 236 243 249 255 261 270 285 300 312 319 321 325 328 331 334 335 337 339 341 343 346 347 349 350 350 350 351 351 352 351 350 349 348 348 348 346 346 348 351 354
240 242 240 238 235 230 231 239 245 244 244 246 248 254 260 261 258 257 260 261 254 250 258 264 262 259 257 255 254 254 252 250 249 248 247 248 250 249 246 243 243 243 240 235 231 232 237 243 250 257 268 283 298 309 315 318 322 325 328 331 334 337 339 341 343 346 347 348 349 351 352 352 353 353 352 351 351 350 351 349 347 347 348 350 354
238 238 237 235 235 235 234 236 238 239 239 240 245 254 261 259 254 258 261 256 249 250 261 264 261 258 255 253 253 252 249 246 246 246 245 245 246 244 238 235 235 235 231 227 227 230 234 239 245 254 266 282 296 306 312 316 319 323 326 330 333 337 339 341 344 345 346 349 351 351 352 353 353 353 353 352 352 353 352 349 348 350 349 349 352
234 233 233 232 237 241 236 229 230 234 236 238 244 251 254 251 254 260 259 251 246 252 262 266 264 260 254 252 252 250 248 247 245 242 241 242 242 238 233 231 231 227 223 223 226 228 231 236 243 253 267 281 293 303 310 314 317 322 325 329 333 336 338 341 344 345 347 350 351 351 352 354 354 353 353 354 354 353 351 349 351 353 351 350 351
229 231 235 238 245 247 233 222 226 232 235 238 244 247 250 253 257 259 255 250 249 253 262 267 266 261 256 254 253 251 250 249 246 242 241 242 240 237 232 227 222 219 219 221 224 226 229 233 241 253 267 280 291 301 308 312 317 321 324 328 332 334 337 341 343 345 348 351 351 352 353 354 355 354 354 353 353 353 352 353 355 355 352 352 351
225 227 234 242 249 247 230 220 224 231 236 241 246 249 254 257 255 253 251 250 252 257 265 269 267 262 258 255 253 252 250 247 245 244 243 240 239 239 235 224 215 214 217 219 222 224 226 232 240 253 267 279 290 300 307 313 317 320 322 326 330 333 336 340 343 346 349 351 351 353 354 355 356 355 354 352 353 355 357 357 356 355 355 355 350
232 231 236 242 245 241 230 223 226 233 239 244 248 252 254 253 250 248 248 250 256 263 267 266 263 261 259 256 254 252 249 245 243 243 243 240 239 239 236 227 216 214 216 218 221 223 226 232 241 253 265 277 288 298 306 312 315 318 321 325 328 331 335 340 344 347 349 350 351 353 354 356 357 355 354 354 356 358 357 354 354 356 358 357 354
244 242 241 240 238 237 235 232 232 237 241 244 249 251 250 247 247 246 246 252 260 263 262 259 257 257 257 256 254 250 246 244 242 242 242 240 238 238 236 230 222 217 217 218 221 223 227 233 242 252 264 275 286 296 305 311 314 317 320 322 325 330 336 341 345 347 349 350 351 352 355 357 357 357 357 357 357 356 354 353 354 355 356 357 358
250 248 245 241 236 234 237 240 242 243 244 246 252 252 246 244 248 250 251 255 258 258 259 259 258 257 255 254 253 249 245 243 242 242 241 239 237 237 235 231 226 220 219 220 221 224 229 235 242 251 262 273 284 294 303 310 314 317 319 320 324 330 336 341 344 346 348 349 350 352 355 357 358 358 359 358 356 355 354 354 354 355 355 357 359
252 251 249 246 240 233 234 239 243 245 247 250 256 256 247 244 250 255 256 256 255 254 255 256 257 257 255 253 252 249 245 244 243 242 240 238 238 237 233 230 228 223 220 221 222 225 230 236 243 251 261 272 283 293 302 309 314 317 318 321 324 329 335 340 343 346 347 348 349 351 355 357 358 358 359 358 356 355 355 355 356 356 357 359 360
254 254 252 250 245 239 237 240 244 248 251 252 255 256 249 244 247 251 252 251 248 249 250 251 252 253 252 250 250 247 245 244 241 239 237 237 237 235 232 233 231 225 222 221 222 226 232 237 243 252 261 272 283 293 301 308 314 316 318 319 322 327 334 339 342 345 345 346 347 350 354 357 358 358 359 358 357 356 357 358 358 358 358 359 1
257 259 257 254 248 243 242 241 242 246 250 251 253 254 247 242 244 248 249 249 249 252 256 256 255 254 252 249 245 242 240 237 234 234 236 236 234 232 234 237 234 228 224 223 223 228 233 238 245 252 262 272 283 291 299 305 310 313 316 318 320 324 331 336 340 343 343 343 345 349 353 356 357 358 358 358 357 357 358 360 1 1 0 360 0
259 262 262 259 252 245 244 245 245 247 250 252 252 250 244 242 246 249 251 254 258 261 262 261 259 257 255 251 247 243 240 236 234 236 238 235 232 231 235 237 232 228 226 225 226 230 236 241 247 253 261 271 280 288 295 300 304 309 312 315 317 321 327 333 338 341 341 342 343 347 351 354 356 356 356 356 357 359 360 1 2 3 3 2 0
260 262 262 260 255 249 248 250 252 253 254 252 248 243 242 244 247 250 254 258 262 263 262 261 260 260 259 255 251 247 243 239 239 240 240 236 232 233 235 234 230 227 226 226 227 232 238 243 249 254 261 270 278 285 291 295 300 305 309 312 315 319 324 330 335 339 340 340 341 345 349 352 354 355 354 355 358 360 1 1 3 5 6 5 4
261 261 258 256 252 249 248 251 255 256 254 248 242 241 244 248 251 254 258 260 261 262 261 260 261 262 262 258 254 250 246 243 242 242 240 236 235 236 236 233 229 227 227 227 229 235 241 246 252 256 263 270 276 282 287 291 296 302 307 311 314 317 322 327 333 336 338 339 340 342 346 349 351 354 355 356 358 360 360 1 4 7 8 8 9
260 258 252 247 246 247 248 250 253 253 248 244 243 246 251 255 257 258 260 263 264 264 263 261 260 261 261 259 255 252 249 247 247 245 242 240 240 240 238 234 230 228 228 230 233 237 243 248 253 258 264 269 274 280 285 288 293 300 304 309 313 316 320 325 330 335 337 337 338 340 343 346 349 351 352 354 356 358 358 358 2 8 11 11 12
257 256 248 240 240 244 246 247 249 249 244 243 247 251 255 259 261 263 267 272 272 271 268 264 259 257 257 256 253 250 249 248 248 245 243 243 244 243 239 234 230 229 230 232 234 238 244 250 255 259 264 268 273 278 283 286 291 296 301 306 311 314 318 323 328 332 335 336 336 337 340 343 346 348 350 352 354 355 354 355 360 8 13 13 13
257 256 247 236 232 233 235 240 245 247 245 246 250 255 258 261 264 269 275 279 279 276 272 266 260 255 253 250 246 245 245 245 245 243 242 244 244 241 236 231 228 228 230 233 236 240 245 251 256 261 265 269 273 277 281 285 288 293 298 303 308 312 315 320 326 330 332 333 334 335 337 340 343 345 347 350 352 352 351 350 354 4 11 13 13
254 252 244 236 232 231 233 238 242 244 245 248 253 257 261 264 269 274 277 278 280 281 276 268 262 258 255 251 246 244 242 242 242 242 243 244 243 239 234 228 226 227 231 234 239 244 247 251 257 262 266 269 272 276 279 283 287 291 296 300 304 308 312 317 323 327 330 331 332 333 334 337 340 342 343 346 349 351 350 347 348 356 5 9 11
253 248 241 237 236 236 237 238 241 243 247 251 255 259 263 267 272 275 275 275 278 281 279 273 268 265 261 256 250 244 241 240 241 242 244 245 243 240 234 228 226 228 231 234 240 245 248 252 257 262 265 268 271 274 278 281 285 289 293 297 301 305 309 315 320 324 327 329 330 332 333 334 337 339 340 342 345 348 349 347 345 348 356 3 7
253 249 244 242 242 242 241 241 243 246 249 252 255 259 262 266 271 274 274 272 273 276 278 279 276 270 262 254 247 243 241 241 242 243 243 243 241 237 231 227 227 229 231 235 241 245 248 251 256 260 264 268 271 274 276 280 283 287 290 294 298 302 307 313 317 322 325 326 328 330 330 331 332 334 336 338 340 344 346 346 344 344 348 355 360
251 250 249 250 250 251 251 250 249 250 250 250 252 254 258 263 269 271 270 268 268 270 273 276 278 272 262 253 248 245 245 244 244 243 242 240 239 235 230 228 230 232 233 236 241 245 247 250 255 259 264 268 271 273 276 279 282 285 288 291 296 300 305 310 314 318 321 323 325 327 327 328 329 331 332 334 336 339 342 342 343 343 345 348 350
246 247 249 253 256 258 258 257 255 253 251 250 251 253 254 258 262 264 263 265 266 267 269 272 274 271 264 256 249 245 244 244 242 241 240 239 237 235 232 231 232 235 236 237 241 245 248 250 254 258 263 268 271 273 275 278 280 283 286 290 294 298 303 307 311 315 317 319 321 323 324 325 326 327 329 330 331 334 336 337 338 339 342 345 348
248 249 252 256 260 262 262 260 256 253 250 250 252 254 253 253 256 258 260 263 265 268 271 273 273 271 266 257 247 242 242 241 239 238 237 236 235 235 234 233 234 236 237 239 242 247 249 250 253 257 263 269 272 273 275 276 279 282 286 288 292 296 300 304 308 311 314 316 318 320 321 322 323 324 325 326 326 328 331 332 333 332 333 337 341
252 253 254 257 258 256 254 252 251 250 250 250 252 253 252 252 254 257 260 262 266 270 272 273 272 271 267 258 247 242 242 241 239 238 238 238 237 237 235 234 235 237 238 240 244 248 250 251 253 257 264 269 272 273 274 275 278 281 285 287 290 294 297 301 305 308 311 313 315 317 318 319 320 321 322 323 323 323 325 326 327 327 325 327 332
254 254 254 253 251 248 247 248 251 252 250 249 249 251 251 250 252 256 261 265 269 272 272 270 269 268 265 259 251 246 243 242 241 240 240 240 240 238 236 236 237 238 240 242 245 249 251 252 253 258 264 269 271 271 273 275 277 280 283 286 289 292 295 299 303 306 309 310 312 313 315 317 318 318 319 320 320 320 320 321 322 323 321 319 320
253 253 252 251 249 248 250 252 253 252 249 246 247 249 250 249 251 256 262 267 271 273 273 271 269 266 262 257 252 248 245 243 242 242 241 240 239 236 235 236 238 240 242 245 248 251 253 254 255 259 265 268 269 270 272 274 276 278 281 284 287 291 295 298 302 304 305 307 309 311 313 314 315 316 316 317 318 318 318 318 319 320 320 318 315
251 251 251 250 248 248 249 251 251 251 249 246 246 249 250 250 251 256 262 269 274 276 276 274 271 267 261 256 251 248 245 243 242 241 240 239 238 237 236 237 240 242 245 247 250 252 254 255 257 261 265 267 267 269 271 272 274 277 280 283 286 291 295 297 299 301 302 304 307 309 310 312 313 314 314 314 314 314 314 315 315 315 317 318 315
253 254 254 253 251 249 248 249 251 251 249 247 248 251 253 254 256 260 266 272 276 277 275 273 271 267 263 259 254 248 243 241 241 241 239 238 237 238 238 239 242 244 247 250 252 254 255 256 259 263 266 267 267 267 269 271 274 276 279 283 286 290 294 296 297 299 301 304 306 307 308 309 310 311 311 311 311 311 311 312 312 312 313 314 315
255 255 255 254 253 251 250 250 252 252 250 250 254 258 260 261 265 269 272 274 276 277 275 273 271 268 265 262 258 251 244 239 239 239 238 237 237 238 239 241 243 245 248 251 253 255 256 258 262 265 266 266 265 266 268 271 274 277 280 283 287 290 293 295 297 299 301 303 305 305 306 307 308 308 308 308 307 307 308 308 309 308 308 309 311
254 255 255 254 254 254 254 254 254 254 255 257 262 265 264 265 269 272 273 273 275 276 276 275 272 269 267 266 263 256 247 239 237 236 236 236 238 239 240 242 244 246 248 252 254 255 258 261 263 266 266 265 264 266 268 271 274 278 281 285 288 290 292 295 297 299 301 302 302 303 304 304 306 306 305 303 302 302 303 304 304 304 303 303 305
255 256 256 255 253 253 254 254 255 256 258 261 264 264 263 264 268 271 271 272 274 276 276 275 272 269 268 267 264 259 251 243 238 236 235 236 239 240 241 244 246 249 252 254 255 255 258 261 264 266 266 265 265 267 269 272 275 279 282 285 288 290 292 294 296 297 298 299 300 300 301 302 303 302 301 299 299 299 301 302 301 301 301 302 302
256 257 257 254 250 248 249 251 253 257 260 262 263 262 261 263 266 268 269 271 273 274 273 272 270 268 268 266 264 261 256 248 240 235 233 236 240 243 245 248 251 254 257 258 256 255 257 261 265 268 268 267 267 268 270 273 276 279 283 285 287 289 291 293 294 296 296 297 297 298 298 299 299 298 297 296 297 297 299 300 300 300 299 300 301
Height
3138 3138 3140 3141 3142 3144 3145 3146 3148 3149 3150 3151 3151 3152 3153 3153 3154 3154 3154 3154 3154 3155 3154 3155 3155 3155 3154 3154 3154 3154 3154 3154 3154 3154 3153 3153 3153 3153 3152 3152 3151 3151 3150 3150 3149 3148 3148 3147 3146 3145 3144 3143 3142 3141 3140 3138 3137 3136 3135 3133 3132 3130 3128 3127 3124 3122 3121 3119 3116 3113 3110 3107 3105 3101 3098 3095 3092 3088 3084 3080 3075 3071 3066 3061 3057
3136 3137 3138 3139 3141 3142 3143 3144 3146 3147 3148 3149 3150 3151 3151 3152 3152 3152 3153 3153 3153 3153 3153 3153 3153 3153 3153 3152 3152 3152 3152 3152 3152 3152 3151 3151 3151 3151 3151 3150 3150 3149 3149 3148 3147 3147 3146 3145 3144 3144 3143 3141 3140 3139 3138 3137 3135 3134 3133 3132 3130 3129 3127 3125 3123 3121 3120 3117 3114 3112 3109 3106 3103 3099 3096 3093 3089 3086 3082 3078 3073 3068 3063 3059 3055
3134 3135 3136 3138 3139 3140 3141 3143 3144 3146 3147 3147 3148 3149 3150 3150 3150 3151 3151 3151 3151 3151 3151 3151 3151 3151 3151 3151 3150 3151 3151 3150 3150 3150 3150 3150 3149 3149 3149 3149 3148 3148 3147 3146 3146 3145 3144 3144 3143 3142 3141 3140 3139 3137 3136 3135 3134 3133 3131 3130 3128 3127 3125 3123 3121 3120 3117 3115 3112 3110 3107 3104 3100 3097 3094 3090 3087 3084 3080 3075 3071 3066 3061 3056 3052
3132 3133 3134 3136 3137 3138 3139 3141 3142 3144 3145 3145 3146 3147 3148 3148 3148 3149 3149 3149 3149 3149 3149 3149 3149 3149 3149 3149 3149 3149 3149 3149 3149 3148 3148 3148 3148 3148 3148 3147 3147 3146 3145 3145 3144 3143 3142 3142 3141 3141 3140 3138 3137 3136 3135 3133 3132 3131 3130 3128 3126 3125 3123 3121 3120 3117 3115 3112 3110 3108 3105 3102 3099 3095 3091 3088 3085 3081 3078 3073 3068 3064 3059 3054 3049
3129 3130 3132 3133 3134 3136 3137 3139 3140 3141 3142 3143 3144 3145 3146 3146 3146 3147 3147 3147 3147 3147 3147 3147 3147 3147 3147 3147 3147 3147 3147 3147 3147 3147 3146 3146 3146 3146 3146 3146 3145 3144 3144 3143 3142 3141 3141 3140 3140 3139 3138 3137 3136 3134 3133 3132 3131 3130 3128 3127 3125 3123 3121 3120 3118 3116 3113 3111 3108 3105 3102 3099 3097 3093 3089 3086 3082 3078 3075 3071 3066 3061 3056 3051 3046
3125 3127 3129 3130 3132 3133 3135 3136 3138 3139 3140 3141 3142 3143 3144 3144 3144 3145 3145 3145 3145 3145 3145 3145 3145 3145 3145 3145 3145 3145 3145 3145 3145 3145 3145 3144 3144 3144 3144 3144 3143 3142 3142 3141 3140 3139 3139 3138 3138 3137 3137 3135 3134 3133 3132 3131 3130 3129 3127 3126 3124 3122 3120 3119 3117 3114 3112 3109 3106 3103 3100 3097 3094 3090 3087 3084 3080 3075 3071 3068 3064 3059 3054 3047 3042
3123 3125 3126 3128 3130 3131 3133 3134 3136 3137 3138 3139 3140 3141 3142 3142 3142 3143 3143 3143 3143 3143 3143 3143 3143 3143 3143 3143 3143 3143 3143 3143 3143 3143 3143 3142 3142 3142 3142 3142 3141 3141 3140 3139 3138 3138 3137 3137 3136 3136 3135 3134 3133 3132 3131 3130 3129 3128 3126 3125 3123 3121 3119 3117 3115 3113 3111 3108 3105 3102 3098 3095 3091 3088 3085 3082 3078 3074 3068 3063 3060 3056 3051 3046 3040
3120 3122 3124 3126 3127 3129 3130 3132 3133 3135 3136 3137 3138 3139 3139 3140 3140 3141 3141 3141 3141 3141 3141 3141 3141 3141 3141 3141 3141 3141 3141 3141 3141 3141 3141 3140 3140 3140 3140 3140 3140 3139 3138 3137 3136 3136 3135 3135 3135 3134 3133 3133 3132 3131 3130 3129 3128 3127 3125 3124 3122 3121 3119 3116 3114 3111 3109 3106 3103 3100 3096 3093 3089 3087 3084 3079 3075 3071 3066 3062 3057 3052 3048 3045 3039
3118 3120 3122 3123 3125 3127 3128 3129 3131 3132 3133 3134 3135 3136 3137 3138 3138 3139 3139 3139 3139 3139 3139 3139 3139 3139 3139 3139 3139 3139 3139 3139 3139 3139 3139 3138 3138 3138 3138 3138 3138 3137 3136 3135 3135 3134 3134 3134 3133 3133 3132 3132 3131 3130 3129 3128 3127 3126 3125 3123 3121 3119 3117 3115 3112 3110 3107 3104 3101 3098 3095 3091 3087 3084 3081 3077 3072 3068 3064 3060 3056 3050 3046 3043 3038
3116 3117 3119 3121 3122 3124 3125 3127 3128 3129 3130 3131 3133 3134 3135 3135 3136 3136 3137 3137 3137 3137 3137 3137 3137 3137 3137 3137 3137 3137 3137 3137 3137 3137 3137 3137 3136 3136 3136 3136 3136 3135 3134 3134 3133 3132 3132 3132 3132 3131 3131 3131 3130 3129 3128 3127 3126 3125 3124 3122 3120 3118 3116 3114 3111 3109 3106 3103 3100 3097 3093 3089 3085 3082 3078 3075 3071 3067 3063 3058 3053 3049 3045 3041 3036
3113 3115 3116 3118 3120 3121 3123 3124 3125 3126 3128 3129 3130 3131 3132 3133 3133 3134 3134 3135 3135 3135 3135 3135 3135 3134 3134 3134 3134 3134 3134 3135 3135 3135 3135 3135 3134 3134 3134 3134 3134 3133 3132 3132 3131 3131 3130 3130 3130 3130 3130 3129 3129 3128 3127 3126 3125 3124 3123 3121 3119 3117 3115 3113 3110 3108 3105 3102 3098 3095 3091 3087 3084 3081 3077 3073 3069 3065 3061 3056 3052 3049 3044 3038 3033
3110 3112 3114 3116 3117 3119 3120 3121 3122 3124 3125 3126 3127 3128 3129 3130 3131 3131 3132 3132 3132 3132 3132 3132 3132 3132 3132 3132 3132 3132 3132 3132 3133 3133 3133 3132 3132 3132 3132 3132 3132 3131 3131 3130 3129 3129 3128 3128 3128 3128 3128 3128 3127 3126 3125 3124 3123 3122 3121 3119 3117 3115 3113 3111 3109 3107 3104 3101 3097 3093 3089 3086 3083 3079 3075 3071 3067 3063 3059 3055 3052 3048 3044 3038 3033
3108 3110 3112 3113 3115 3116 3117 3118 3120 3121 3122 3123 3124 3125 3126 3127 3128 3128 3129 3129 3130 3130 3130 3130 3130 3130 3129 3129 3129 3129 3130 3130 3130 3130 3130 3130 3130 3129 3130 3130 3130 3129 3129 3128 3128 3127 3127 3127 3127 3127 3126 3126 3125 3124 3123 3122 3121 3120 3119 3117 3116 3114 3112 3110 3108 3105 3103 3099 3096 3092 3088 3085 3082 3078 3073 3069 3065 3060 3056 3053 3050 3047 3043 3039 3033
3105 3107 3109 3111 3112 3113 3114 3116 3117 3118 3119 3120 3121 3122 3123 3124 3125 3126 3126 3127 3127 3127 3127 3127 3127 3127 3127 3127 3127 3127 3127 3127 3128 3128 3128 3128 3127 3127 3127 3127 3128 3128 3127 3127 3127 3126 3126 3126 3126 3125 3125 3125 3124 3123 3122 3121 3120 3119 3117 3115 3114 3112 3110 3109 3106 3104 3101 3098 3095 3091 3088 3085 3080 3076 3072 3067 3063 3059 3055 3052 3048 3044 3042 3038 3034
3103 3105 3106 3108 3109 3110 3112 3113 3114 3115 3116 3117 3118 3119 3120 3121 3122 3123 3124 3124 3124 3125 3125 3125 3125 3125 3124 3124 3124 3125 3125 3125 3125 3125 3125 3125 3125 3125 3125 3125 3125 3126 3126 3126 3125 3125 3125 3125 3124 3124 3124 3123 3123 3122 3121 3120 3119 3118 3116 3115 3113 3111 3109 3108 3105 3103 3100 3097 3094 3090 3087 3083 3079 3075 3070 3066 3062 3059 3055 3051 3047 3043 3040 3038 3034
3100 3102 3104 3105 3106 3108 3109 3110 3111 3112 3113 3114 3115 3116 3118 3119 3119 3120 3121 3121 3121 3122 3122 3122 3122 3122 3122 3122 3122 3122 3122 3122 3122 3123 3123 3123 3123 3123 3123 3123 3123 3124 3124 3124 3124 3123 3123 3123 3123 3123 3123 3122 3122 3121 3120 3119 3118 3117 3116 3114 3112 3110 3109 3107 3105 3102 3099 3096 3093 3090 3086 3083 3079 3075 3071 3066 3062 3058 3055 3051 3047 3043 3039 3035 3032
3098 3100 3101 3102 3104 3105 3106 3107 3108 3109 3110 3111 3112 3113 3114 3115 3116 3117 3118 3118 3118 3119 3119 3119 3119 3119 3119 3119 3119 3119 3119 3119 3120 3120 3120 3121 3121 3121 3121 3121 3122 3122 3122 3122 3122 3122 3122 3122 3122 3122 3122 3121 3121 3120 3119 3118 3117 3116 3115 3113 3112 3110 3108 3106 3104 3102 3099 3096 3092 3089 3086 3083 3079 3076 3072 3067 3063 3058 3053 3049 3045 3041 3037 3033 3029
3095 3097 3098 3099 3101 3102 3103 3104 3105 3106 3107 3108 3109 3110 3111 3112 3113 3114 3115 3115 3115 3115 3115 3115 3115 3115 3115 3116 3116 3117 3117 3117 3117 3118 3118 3119 3119 3120 3120 3121 3121 3121 3121 3121 3121 3121 3121 3121 3121 3121 3121 3120 3120 3119 3118 3118 3117 3115 3114 3113 3111 3109 3108 3106 3104 3102 3099 3096 3093 3089 3086 3083 3079 3076 3072 3067 3063 3058 3053 3048 3044 3040 3037 3033 3028
3093 3094 3096 3097 3098 3099 3100 3101 3102 3103 3104 3105 3106 3107 3108 3109 3110 3111 3111 3111 3112 3112 3112 3112 3112 3112 3113 3113 3114 3114 3114 3115 3116 3116 3117 3117 3118 3119 3120 3120 3121 3121 3120 3120 3120 3120 3120 3120 3120 3120 3119 3119 3119 3118 3117 3117 3116 3115 3113 3112 3110 3109 3107 3105 3103 3100 3098 3095 3092 3089 3086 3082 3078 3074 3070 3066 3062 3058 3053 3049 3044 3040 3036 3033 3028
3091 3092 3092 3093 3094 3096 3097 3098 3099 3100 3101 3102 3102 3103 3105 3106 3107 3107 3108 3108 3108 3109 3109 3109 3109 3110 3110 3111 3111 3112 3112 3113 3114 3114 3115 3116 3117 3117 3117 3118 3118 3118 3118 3118 3118 3118 3118 3118 3118 3118 3118 3118 3117 3117 3116 3116 3115 3114 3112 3111 3109 3107 3105 3103 3101 3098 3096 3093 3089 3086 3083 3079 3076 3072 3068 3065 3061 3058 3054 3049 3045 3041 3036 3033 3029
3087 3088 3089 3090 3091 3093 3094 3095 3096 3097 3098 3098 3099 3100 3101 3102 3103 3104 3104 3105 3105 3106 3106 3106 3107 3107 3108 3108 3109 3109 3110 3111 3111 3112 3113 3114 3114 3115 3115 3115 3115 3116 3116 3116 3116 3117 3117 3117 3117 3117 3117 3116 3116 3115 3115 3114 3113 3112 3111 3109 3108 3106 3104 3102 3100 3097 3094 3091 3087 3084 3080 3077 3074 3070 3067 3064 3060 3056 3053 3049 3046 3042 3037 3033 3029
3084 3084 3086 3087 3088 3089 3090 3091 3093 3094 3094 3095 3096 3097 3098 3099 3100 3100 3101 3102 3102 3103 3103 3104 3104 3104 3105 3105 3106 3107 3107 3108 3109 3110 3110 3111 3111 3112 3112 3112 3112 3113 3114 3114 3115 3115 3115 3115 3115 3115 3115 3115 3115 3114 3114 3113 3112 3111 3109 3108 3106 3104 3103 3100 3098 3095 3093 3089 3086 3082 3079 3075 3072 3068 3065 3062 3058 3055 3052 3049 3046 3042 3038 3034 3030
3081 3082 3082 3084 3085 3086 3087 3088 3090 3090 3091 3092 3093 3094 3095 3096 3096 3097 3098 3099 3100 3100 3101 3101 3102 3102 3102 3103 3104 3104 3105 3105 3106 3107 3108 3109 3109 3109 3110 3109 3110 3111 3112 3112 3113 3113 3113 3113 3114 3114 3114 3114 3113 3113 3112 3111 3110 3109 3108 3106 3105 3103 3101 3099 3097 3094 3091 3088 3085 3081 3078 3074 3071 3067 3063 3060 3057 3054 3051 3048 3045 3042 3039 3035 3031
3078 3079 3080 3081 3082 3083 3084 3085 3086 3087 3088 3089 3090 3091 3092 3093 3093 3094 3095 3096 3097 3098 3098 3099 3099 3099 3100 3100 3101 3101 3102 3103 3104 3104 3105 3106 3106 3107 3107 3107 3107 3108 3109 3110 3111 3111 3111 3112 3112 3112 3112 3112 3112 3111 3111 3110 3109 3108 3106 3105 3103 3102 3100 3097 3095 3092 3089 3086 3083 3080 3077 3073 3069 3066 3062 3059 3055 3052 3049 3046 3044 3042 3039 3036 3032
3076 3077 3078 3079 3080 3080 3081 3082 3084 3085 3086 3087 3088 3089 3090 3090 3090 3091 3092 3093 3094 3095 3096 3096 3096 3097 3097 3097 3098 3098 3099 3100 3101 3102 3103 3103 3104 3104 3105 3105 3105 3106 3107 3108 3108 3109 3109 3110 3110 3110 3110 3110 3110 3110 3109 3108 3107 3106 3105 3103 3102 3100 3098 3096 3093 3091 3088 3085 3082 3079 3076 3073 3069 3065 3062 3058 3053 3050 3047 3045 3043 3041 3039 3036 3033
3073 3074 3075 3076 3077 3078 3078 3079 3081 3082 3083 3084 3085 3086 3086 3087 3088 3088 3090 3091 3091 3092 3092 3093 3093 3093 3094 3094 3095 3095 3096 3097 3099 3100 3100 3101 3101 3102 3103 3104 3104 3104 3105 3106 3106 3107 3107 3108 3108 3108 3108 3109 3108 3108 3107 3106 3105 3104 3103 3102 3100 3099 3097 3094 3092 3089 3087 3084 3081 3078 3075 3072 3069 3065 3061 3057 3053 3050 3047 3044 3041 3038 3037 3035 3032
3071 3071 3072 3073 3074 3075 3076 3077 3078 3079 3080 3081 3082 3083 3083 3084 3085 3086 3087 3088 3089 3089 3089 3090 3090 3090 3091 3091 3092 3092 3094 3095 3096 3097 3098 3098 3099 3100 3101 3102 3102 3102 3103 3103 3104 3105 3105 3106 3106 3106 3106 3106 3106 3106 3105 3104 3103 3102 3101 3100 3099 3097 3095 3093 3090 3088 3085 3083 3080 3077 3074 3071 3068 3064 3060 3057 3054 3050 3046 3043 3040 3037 3035 3032 3030
3068 3069 3069 3070 3071 3072 3073 3074 3075 3076 3077 3078 3079 3080 3081 3082 3083 3084 3084 3085 3086 3086 3086 3087 3087 3088 3088 3089 3089 3090 3091 3092 3094 3095 3096 3096 3097 3098 3098 3099 3100 3100 3100 3101 3101 3102 3103 3103 3104 3104 3104 3104 3104 3104 3103 3102 3101 3100 3099 3098 3097 3095 3093 3091 3089 3086 3084 3081 3079 3076 3073 3070 3067 3064 3061 3057 3054 3051 3047 3043 3039 3036 3034 3031 3028
3065 3066 3066 3067 3068 3069 3070 3071 3072 3073 3073 3074 3076 3077 3078 3079 3080 3081 3081 3081 3082 3083 3083 3084 3084 3085 3085 3086 3086 3088 3089 3090 3092 3093 3093 3094 3094 3095 3096 3097 3098 3098 3098 3098 3099 3099 3100 3101 3101 3102 3102 3102 3102 3101 3101 3100 3099 3098 3097 3096 3095 3094 3091 3089 3087 3084 3082 3080 3078 3075 3072 3070 3067 3064 3061 3058 3054 3051 3047 3043 3039 3036 3033 3030 3028
3062 3063 3064 3064 3065 3066 3067 3068 3069 3070 3071 3072 3073 3074 3075 3076 3076 3077 3078 3078 3079 3080 3080 3081 3081 3082 3082 3082 3083 3085 3086 3087 3088 3089 3090 3090 3091 3092 3094 3095 3095 3096 3096 3096 3096 3097 3098 3099 3099 3099 3099 3100 3099 3099 3098 3098 3097 3097 3096 3095 3093 3092 3090 3088 3086 3083 3081 3079 3077 3074 3071 3069 3066 3063 3060 3057 3054 3051 3047 3044 3040 3037 3034 3030 3028
3060 3060 3061 3061 3062 3063 3064 3065 3066 3067 3068 3068 3069 3070 3071 3072 3073 3074 3075 3076 3076 3077 3077 3078 3078 3078 3079 3079 3080 3081 3082 3083 3084 3085 3086 3087 3089 3090 3091 3092 3092 3093 3093 3094 3094 3095 3096 3097 3097 3097 3097 3097 3097 3097 3096 3096 3095 3095 3094 3093 3092 3090 3088 3086 3084 3082 3080 3078 3075 3073 3070 3068 3065 3063 3060 3057 3054 3051 3048 3044 3041 3038 3035 3031 3028
3057 3058 3058 3058 3059 3060 3061 3062 3063 3063 3064 3065 3066 3067 3068 3069 3070 3071 3072 3073 3073 3073 3073 3074 3075 3075 3076 3077 3077 3078 3079 3080 3081 3082 3083 3084 3085 3086 3087 3088 3089 3090 3090 3091 3092 3093 3094 3094 3095 3095 3095 3095 3095 3095 3094 3094 3093 3093 3092 3091 3090 3088 3086 3084 3082 3080 3078 3076 3074 3072 3069 3067 3065 3062 3060 3056 3053 3050 3047 3044 3041 3038 3035 3032 3028
3054 3054 3055 3055 3056 3057 3058 3059 3060 3060 3061 3062 3063 3064 3065 3067 3068 3068 3069 3069 3069 3069 3070 3071 3072 3072 3073 3073 3074 3075 3075 3076 3077 3079 3081 3081 3082 3082 3084 3085 3086 3087 3088 3088 3089 3091 3092 3092 3093 3093 3093 3093 3092 3092 3092 3092 3091 3090 3090 3089 3088 3086 3084 3082 3081 3079 3077 3075 3073 3071 3068 3066 3064 3061 3059 3056 3053 3050 3047 3045 3042 3038 3035 3032 3029
3050 3051 3052 3052 3053 3054 3056 3057 3057 3058 3058 3059 3061 3062 3063 3064 3064 3065 3065 3065 3065 3066 3066 3067 3068 3069 3069 3070 3071 3072 3072 3073 3075 3077 3078 3078 3079 3079 3080 3082 3083 3084 3085 3086 3087 3088 3089 3090 3090 3090 3090 3090 3090 3090 3090 3089 3089 3088 3087 3087 3086 3084 3082 3081 3079 3077 3075 3073 3071 3069 3067 3065 3062 3060 3058 3055 3053 3051 3048 3045 3042 3039 3036 3033 3029
3047 3048 3049 3050 3051 3052 3053 3054 3054 3055 3056 3057 3058 3059 3060 3060 3060 3061 3061 3062 3062 3062 3063 3064 3065 3065 3066 3066 3068 3069 3069 3070 3072 3073 3074 3074 3075 3076 3078 3080 3081 3082 3083 3084 3085 3085 3086 3087 3087 3087 3087 3087 3087 3087 3087 3087 3086 3086 3085 3084 3083 3082 3080 3079 3077 3075 3074 3072 3070 3068 3066 3064 3061 3059 3057 3055 3052 3050 3048 3046 3043 3040 3037 3034 3031
3044 3045 3045 3047 3048 3049 3050 3051 3052 3053 3054 3055 3055 3056 3056 3057 3057 3058 3058 3058 3058 3059 3059 3060 3061 3061 3062 3063 3064 3065 3065 3066 3067 3068 3069 3070 3071 3073 3075 3077 3078 3079 3079 3080 3081 3082 3083 3084 3084 3084 3084 3085 3085 3085 3085 3084 3084 3083 3083 3082 3081 3080 3078 3077 3075 3073 3072 3070 3068 3066 3064 3062 3060 3058 3056 3054 3052 3049 3047 3045 3043 3040 3038 3035 3032
3041 3042 3042 3044 3045 3047 3048 3049 3050 3050 3051 3052 3052 3052 3053 3053 3054 3055 3055 3055 3055 3056 3056 3056 3057 3057 3058 3059 3060 3060 3061 3062 3063 3064 3065 3066 3068 3070 3072 3073 3074 3075 3076 3077 3078 3079 3080 3081 3081 3081 3081 3082 3082 3082 3082 3082 3081 3081 3080 3079 3078 3077 3076 3075 3073 3071 3070 3068 3067 3065 3063 3061 3059 3057 3055 3053 3051 3049 3047 3045 3043 3041 3038 3035 3032
3038 3039 3040 3041 3043 3044 3045 3046 3047 3048 3048 3049 3049 3049 3050 3051 3052 3052 3052 3052 3052 3053 3053 3053 3053 3053 3054 3055 3056 3057 3057 3058 3059 3060 3061 3063 3065 3068 3070 3070 3071 3071 3073 3074 3075 3076 3077 3078 3078 3078 3079 3079 3079 3079 3079 3079 3079 3078 3077 3077 3076 3075 3074 3072 3070 3069 3068 3066 3065 3063 3061 3059 3057 3055 3053 3051 3049 3047 3046 3044 3042 3040 3038 3035 3032
3035 3037 3038 3039 3040 3041 3042 3042 3043 3044 3045 3045 3046 3046 3047 3048 3049 3049 3049 3049 3050 3050 3049 3050 3050 3050 3051 3051 3052 3053 3053 3054 3055 3056 3058 3060 3063 3065 3066 3066 3067 3068 3069 3070 3071 3073 3074 3074 3075 3075 3076 3076 3076 3076 3076 3076 3076 3075 3074 3074 3073 3072 3071 3069 3068 3066 3065 3064 3062 3061 3059 3057 3055 3054 3052 3050 3048 3046 3045 3043 3041 3039 3037 3035 3033
3034 3035 3036 3036 3037 3038 3039 3039 3040 3040 3041 3042 3042 3043 3044 3045 3045 3046 3046 3046 3047 3047 3047 3047 3047 3047 3047 3048 3048 3049 3050 3051 3052 3054 3055 3057 3059 3061 3061 3062 3064 3065 3066 3067 3068 3069 3070 3071 3072 3072 3073 3073 3073 3073 3073 3073 3073 3072 3072 3071 3070 3069 3068 3067 3065 3064 3063 3062 3060 3059 3057 3056 3054 3052 3050 3049 3047 3045 3043 3042 3040 3038 3037 3035 3032
3032 3033 3033 3034 3035 3035 3036 3036 3037 3037 3038 3038 3039 3040 3041 3042 3042 3043 3043 3043 3044 3044 3044 3043 3043 3043 3043 3044 3045 3046 3046 3048 3049 3050 3052 3053 3055 3056 3057 3059 3060 3061 3062 3063 3064 3066 3067 3068 3068 3069 3069 3069 3070 3070 3070 3070 3070 3069 3068 3068 3067 3066 3065 3064 3063 3062 3060 3059 3058 3057 3055 3053 3052 3050 3048 3047 3045 3044 3042 3040 3039 3037 3035 3034 3032
3029 3030 3030 3031 3032 3033 3033 3033 3034 3034 3034 3035 3036 3037 3038 3039 3039 3040 3040 3040 3041 3041 3040 3040 3040 3040 3039 3040 3041 3042 3043 3044 3045 3046 3047 3049 3050 3052 3054 3055 3057 3058 3059 3060 3061 3062 3063 3064 3065 3065 3066 3066 3066 3066 3067 3067 3066 3066 3065 3065 3064 3063 3062 3061 3060 3059 3057 3056 3055 3054 3052 3051 3050 3048 3046 3045 3043 3042 3041 3039 3037 3036 3034 3033 3031
3026 3027 3028 3028 3029 3030 3030 3030 3030 3031 3031 3032 3033 3034 3035 3035 3036 3036 3037 3037 3037 3037 3037 3037 3036 3036 3036 3037 3037 3038 3039 3040 3041 3041 3043 3044 3046 3049 3050 3052 3053 3054 3055 3056 3057 3058 3059 3060 3061 3062 3063 3063 3063 3063 3063 3063 3063 3062 3062 3061 3060 3060 3059 3058 3057 3056 3055 3053 3052 3051 3050 3049 3047 3046 3044 3043 3041 3040 3038 3037 3036 3034 3033 3031 3029
3024 3024 3025 3026 3026 3027 3027 3027 3027 3028 3029 3029 3030 3031 3031 3031 3032 3032 3033 3033 3034 3034 3034 3033 3033 3032 3033 3033 3033 3034 3034 3035 3036 3038 3039 3041 3043 3045 3047 3048 3049 3050 3051 3053 3054 3054 3056 3057 3058 3058 3059 3059 3059 3060 3060 3060 3059 3059 3058 3058 3057 3056 3055 3055 3054 3053 3052 3050 3049 3048 3047 3046 3045 3044 3042 3041 3039 3037 3036 3035 3034 3032 3031 3029 3028
3021 3021 3022 3022 3023 3023 3024 3024 3024 3025 3025 3026 3026 3026 3027 3027 3028 3029 3030 3030 3030 3030 3030 3029 3029 3029 3029 3029 3029 3030 3031 3032 3033 3035 3037 3038 3040 3041 3043 3044 3045 3046 3047 3049 3050 3051 3052 3053 3054 3055 3055 3056 3056 3056 3056 3056 3056 3055 3055 3054 3054 3053 3052 3051 3050 3049 3048 3047 3046 3045 3044 3043 3042 3041 3039 3038 3036 3035 3033 3032 3030 3029 3028 3027 3026
3017 3018 3019 3019 3020 3020 3021 3021 3021 3021 3021 3022 3022 3022 3023 3024 3025 3026 3026 3027 3027 3027 3026 3026 3025 3025 3025 3025 3025 3026 3027 3028 3030 3032 3033 3035 3036 3038 3039 3040 3041 3042 3044 3045 3046 3047 3048 3049 3050 3051 3052 3052 3052 3052 3052 3052 3052 3051 3051 3051 3050 3049 3048 3047 3047 3046 3045 3044 3043 3042 3041 3040 3039 3038 3037 3035 3034 3032 3031 3030 3028 3027 3025 3024 3023
3014 3015 3015 3016 3016 3016 3017 3017 3017 3017 3017 3018 3019 3020 3021 3022 3022 3023 3023 3023 3023 3023 3023 3022 3022 3022 3022 3021 3021 3022 3023 3025 3027 3028 3030 3031 3032 3034 3035 3036 3037 3038 3040 3041 3042 3043 3044 3046 3047 3047 3048 3048 3048 3049 3049 3048 3048 3048 3047 3047 3046 3046 3045 3044 3043 3042 3041 3040 3039 3039 3038 3037 3036 3034 3033 3032 3031 3030 3028 3027 3025 3024 3022 3021 3020
3011 3011 3012 3012 3012 3013 3013 3014 3014 3014 3015 3016 3017 3018 3019 3020 3020 3020 3020 3020 3020 3020 3019 3019 3019 3018 3018 3018 3017 3017 3019 3021 3023 3024 3025 3026 3028 3029 3031 3032 3033 3034 3036 3037 3038 3039 3041 3042 3043 3043 3044 3044 3045 3045 3044 3044 3044 3044 3043 3043 3042 3042 3041 3040 3039 3038 3037 3036 3036 3035 3034 3033 3032 3031 3030 3029 3027 3026 3025 3024 3022 3021 3019 3018 3017
3007 3008 3008 3009 3009 3010 3011 3011 3011 3012 3013 3014 3015 3015 3016 3017 3017 3017 3017 3016 3016 3016 3016 3015 3015 3015 3014 3014 3013 3014 3015 3016 3018 3019 3020 3022 3024 3025 3027 3028 3029 3030 3032 3033 3034 3036 3037 3038 3039 3039 3040 3040 3041 3041 3040 3040 3040 3040 3039 3039 3038 3038 3037 3036 3035 3034 3033 3032 3032 3031 3030 3029 3029 3028 3026 3025 3024 3023 3022 3021 3019 3018 3016 3015 3014
3004 3005 3005 3006 3006 3007 3008 3009 3009 3010 3011 3011 3012 3012 3013 3013 3013 3013 3013 3013 3013 3013 3012 3012 3011 3011 3011 3010 3010 3010 3010 3011 3012 3014 3016 3018 3019 3021 3023 3024 3025 3027 3029 3030 3031 3032 3033 3034 3035 3035 3036 3036 3036 3037 3036 3036 3036 3036 3035 3035 3034 3033 3033 3032 3032 3031 3030 3029 3028 3027 3026 3025 3024 3024 3023 3021 3020 3019 3018 3017 3016 3014 3013 3012 3011
3001 3002 3002 3003 3003 3004 3005 3006 3007 3007 3008 3008 3008 3009 3009 3010 3010 3010 3009 3009 3009 3009 3008 3008 3008 3007 3007 3007 3006 3006 3006 3007 3008 3010 3012 3014 3015 3018 3019 3021 3022 3024 3025 3027 3027 3028 3029 3030 3031 3031 3032 3032 3032 3032 3032 3032 3032 3032 3031 3031 3030 3029 3029 3028 3027 3027 3026 3025 3024 3023 3022 3021 3020 3020 3019 3018 3016 3015 3014 3013 3012 3011 3010 3008 3007